www.pogodaiklimat.ru

Погода и климат >> Архив погоды >> Мальта >> Аэропорт Мальта


АРХИВ ПОГОДЫ в Аэропорту Мальты

Время (UTC), дата Ветер
(напр.,м/с)
 
Видим.   Явления Облачность Т
(С)
Тd
(С)
f
(%)
Тe
(С)
Тes
(С)
Комфортность P
(гПа)
Po
(гПа)
Тmin
(С)
Tmax
(С)
R
(мм)
R24
(мм)
S
(см)
21 12.06 Ю 3
{7}
15 км ясно +25.1 +17.0 61 +29 +29 душно 1012.2 1001.8
00 13.06 СВ 2
{7}
15 км ясно +22.6 +17.9 75 +28 +28 душно 1012.7 1002.2
03 13.06 С 1
{4}
12 км 3/0
[Ac cast]
+21.9 +18.5 81 +27 +27 душно 1012.0 1001.5
06 13.06 В 4
{7}
12 км ясно +24.1 +20.3 79 +30 +32 очень
душно
1012.4 1002.0 +21.1 +25.9
09 13.06 ЮВ 6
{8}
20 км ясно +29.2 +17.3 49 +33 +41 очень
душно
1013.3 1003.0
12 13.06 В 4
{8}
15 км ясно +28.3 +19.3 58 +34 +47 очень
душно
1012.7 1002.4
15 13.06 СВ 6
{7}
15 км ясно +28.4 +19.6 59 +34 +38 очень
душно
1012.3 1002.1
18 13.06 СВ 3
{8}
12 км ясно +25.2 +19.8 72 +31 +31 очень
душно
1013.3 1002.9 +22.6 +30.0
21 13.06 СВ 5
{6}
10 км ясно +23.2 +21.1 88 +31 +31 очень
душно
1014.8 1004.3
00 14.06 СВ 5
{7}
10 км ясно +23.1 +21.3 90 +31 +31 очень
душно
1014.5 1004.0
03 14.06 СВ 5
{8}
10 км ясно +22.4 +20.9 91 +29 +29 очень
душно
1014.4 1003.9
06 14.06 СВ 5
{9}
12 км ясно +24.2 +20.6 80 +30 +32 очень
душно
1015.5 1005.0 +22.2 +25.2
09 14.06 В 7
{9}
15 км ясно +27.8 +18.5 57 +33 +38 очень
душно
1016.5 1006.1
12 14.06 В 6
{10}
15 км ясно +29.3 +17.9 50 +34 +43 очень
душно
1015.8 1005.5
15 14.06 В 6
{11}
15 км ясно +27.5 +18.6 58 +32 +36 очень
душно
1015.8 1005.5
18 14.06 В 4
{11}
15 км 4/0
[Ci fib]
+24.2 +19.9 77 +30 +30 очень
душно
1015.6 1005.1 +24.1 +30.0
21 14.06 СВ 5
{9}
10 км 5/1 240 м
[St Ci fib]
+22.8 +21.4 92 +30 +30 очень
душно
1017.7 1007.2
00 15.06 С 2
{9}
10 км 9/0
[Ci fib]
+23.4 +18.8 75 +30 +30 очень
душно
1016.4 1005.9
03 15.06 З 2
{4}
10 км 9/0
[Ac trans Ci fib]
+23.6 +17.5 69 +28 +28 душно 1013.9 1003.4
06 15.06 СВ 3
{5}
15 км 10/0
[Cs]
+24.9 +18.4 67 +29 +32 душно 1014.7 1004.3 +22.6 +25.5
09 15.06 С 2
{8}
15 км 10/0
[Ci fib]
+29.7 +17.5 48 +34 +48 очень
душно
1015.6 1005.3
12 15.06 ЮЗ 3
{8}
18 км 5/0
[Ci fib]
+32.3 +16.5 39 +35 +52 опасность
солнечного
удара
1015.1 1004.9
15 15.06 С 4
{9}
18 км осадки на расстоянии 9/1
[Cu med, cong As trans Ci ing]
+31.0 +14.9 38 +33 +36 душно 1014.4 1004.1
18 15.06 ЮЗ 1
{9}
15 км 5/0
[Ac cast Ci fib]
+27.1 +17.8 57 +32 +32 очень
душно
1013.2 1002.9 +25.0 +34.3
21 15.06 ЮЗ 2
{6}
15 км ясно +25.9 +12.8 44 +28 +28 жарко 1013.9 1003.4
00 16.06 СЗ 4
{6}
15 км ясно +25.2 +15.3 54 +28 +28 жарко 1013.4 1002.9
03 16.06 ЮВ 1
{5}
15 км 3/0
[Ac trans]
+24.7 +17.0 62 +28 +28 душно 1012.3 1001.9
06 16.06 В 1
{5}
15 км 3/0
[Ci fib]
+26.5 +18.2 60 +31 +36 душно 1013.1 1002.8 +22.9 +27.2
09 16.06 ЮВ 4
{5}
12 км 3/0
[Ci fib]
+32.0 +15.2 36 +34 +46 душно 1013.6 1003.4
12 16.06 Ю 4
{7}
15 км 3/0
[Ci fib]
+33.1 +13.8 31 +34 +47 очень
жарко
1013.3 1003.1
15 16.06 Ю 4
{6}
15 км 8/0
[Ci sp]
+31.0 +14.1 36 +33 +38 душно 1012.9 1002.7
18 16.06 СВ 2
{6}
12 км ясно +27.9 +15.0 45 +30 +30 жарко 1012.6 1002.3 +27.2 +34.4
21 16.06 СВ 2
{4}
12 км 1/0
[Ci fib]
+25.8 +18.6 64 +31 +31 очень
душно
1013.1 1002.7
00 17.06 ЮВ 1
{4}
12 км 1/0
[Ci fib]
+24.1 +16.3 62 +28 +28 душно 1012.5 1002.1
03 17.06 В 2
{5}
12 км 5/0
[Ci fib]
+23.9 +17.8 69 +28 +28 душно 1012.0 1001.6
06 17.06 С 2
{5}
13 км ясно +26.1 +18.4 63 +31 +35 очень
душно
1012.4 1002.0 +22.7 +27.8
09 17.06 В 3
{9}
17 км 5/0
[Ci fib]
+29.3 +16.8 47 +33 +45 душно 1012.9 1002.6
12 17.06 ЮВ 5
{9}
21 км 6/0
[Ci sp]
+30.7 +14.2 37 +33 +43 душно 1012.6 1002.4
15 17.06 ЮВ 4
{8}
20 км 6/0
[Ci sp]
+30.9 +11.6 31 +31 +37 жарко 1012.1 1001.8
18 17.06 ЮЗ 1
{8}
15 км 4/0
[Ci sp]
+26.9 +16.0 51 +30 +30 душно 1012.0 1001.7 +26.2 +31.4
21 17.06 ЮВ 3
{5}
15 км 8/0
[Ci sp]
+23.6 +20.0 80 +29 +29 душно 1012.3 1001.9
00 18.06 СВ 3
{5}
15 км 8/0
[Ac cast Ci sp]
+23.5 +20.9 85 +29 +29 душно 1011.9 1001.5
03 18.06 С 3
{6}
12 км 5/0
[Ac cast Ci sp]
+22.5 +19.3 82 +28 +28 душно 1012.2 1001.7
06 18.06 В 4
{8}
8000 м 3/3 270 м
[St]
+24.1 +22.5 91 +32 +33 очень
душно
1012.8 1002.4 +22.4 +26.8
09 18.06 ЮВ 4
{8}
15 км 1/0
[Ci fib]
+29.2 +15.7 44 +32 +43 душно 1013.4 1003.1
12 18.06 ЮВ 6
{8}
20 км 1/0
[Ci fib]
+30.5 +14.8 39 +33 +41 душно 1013.7 1003.4
15 18.06 ЮВ 3
{8}
21 км ясно +29.4 +14.8 41 +32 +39 душно 1013.3 1003.0
18 18.06 З 2
{8}
15 км 1/0
[Ci fib]
+26.0 +18.3 63 +31 +31 очень
душно
1013.7 1003.3 +24.2 +31.1
21 18.06 СВ 2
{6}
12 км ясно +24.3 +20.6 80 +30 +30 очень
душно
1015.0 1004.6
00 19.06 З 1
{6}
10 км ясно +22.5 +20.2 87 +29 +29 очень
душно
1014.0 1003.5
03 19.06 З 2
{3}
10 км ясно +21.7 +20.5 93 +27 +27 душно 1013.4 1002.9
06 19.06 З 2
{4}
8000 м дымка 1/1 330 м
[Sc]
+23.3 +21.4 89 +31 +35 очень
душно
1014.3 1003.9 +20.7 +25.9
09 19.06 ЮВ 3
{5}
20 км 1/0
[Ci fib]
+29.1 +18.8 54 +34 +49 очень
душно
1014.3 1004.0
12 19.06 ЮЗ 4
{7}
20 км 1/0
[Ci fib]
+29.2 +17.8 50 +34 +48 очень
душно
1014.3 1004.0
15 19.06 З 4
{8}
20 км 1/0
[Ci fib]
+29.4 +11.0 32 +30 +35 жарко 1013.7 1003.4
18 19.06 СЗ 4
{8}
15 км 4/1 540 м
[Sc Ci sp]
+25.1 +11.8 43 +27 +27 жарко 1013.3 1002.8 +23.4 +30.7

 

Местоположение метеостанции Аэропорт Мальта (Мальта): широта 35.85 долгота 14.48 высота над уровнем моря 91 м.

В архиве по умолчанию представлена погода в Аэропорту Мальты за последнюю неделю. Архивные данные за месяц целиком и за предыдущие месяцы, начиная с января 2011 года, Вы можете получить, выбрав интересующий диапазон дат из раскрывающегося списка и нажав кнопку "Ввод!".


*Определитесь, кто Вы:
робот инопланетянин человек

Внимание! Время в таблицах - всемирное. Для получения местного времени необходимо прибавить поправку, которая равна 1 ч.

Смотрите также архив погоды в соседних городах и на ближайших метеорологических станциях:

Погода в Коццо Спадаро (Италия) (109 км)
Погода в Джеле (Италия) (139 км)
Погода в Сиракузах (Италия) (153 км)
Погода в Лампедузе (Италия) (174 км)
Погода в Катании (Италия) (177 км)
Погода в Аэропорту Фонтанаросса (Италия) (187 км)
Погода в Энне (Италия) (192 км)
Погода в Прицци (Италия) (228 км)
Погода в Джибилманне (Италия) (240 км)
Погода в Пантеллерии (Италия) (249 км)

Пояснения к столбцам:

Ветер - указаны скорость ветра в м/с - средняя за 10 мин, порывы в срок и между сроками (в фигурных скобках) и направление, откуда дует ветер: С - северный, СВ - северо-восточный, В - восточный, ЮВ - юго-восточный, Ю - южный, ЮЗ - юго-западный, З - западный, СЗ - северо-западный.
Видимость - горизонтальная дальность видимости в метрах или километрах. При видимости от 1 до 10 км при отсутствии осадков обычно наблюдается дымка, при ухудшении видимости до 1 км и менее - туман. В сухую погоду видимость может ухудшаться дымом, пылью или мглою.
Явления - указаны атмосферные явления, наблюдавшиеся в срок или в последний час перед сроком; фигурными скобками обозначены явления, наблюдавшиеся между сроками (за 1-3 часа до срока); квадратными скобками обозначены град или гололедные отложения с указанием их диаметра в мм.
Облачность - указаны через наклонную черту общая и нижняя облачность в баллах и высота нижней границы облаков в метрах; квадратными скобками обозначены формы облаков: Ci - перистые, Cs - перисто-слоистые, Cc - перисто-кучевые, Ac - высококучевые, As - высокослоистые, Sc - слоисто-кучевые, Ns - слоисто-дождевые, Cu - кучевые, Cb - кучево-дождевые. Подробнее классификацию облаков см. в Атласе облаков (PDF).
T - Температура воздуха - температура, измеренная на высоте 2 м над землей.
Td - Температура точки росы - температура, при понижении до которой содержащийся в воздухе водяной пар достигнет насыщения.
f - Относительная влажность воздуха - влажноcть воздуха, измеренная на высоте 2 м над землей.
Te - Эффективная температура - температура, которую ощущает одетый по сезону человек в тени. Характеристика душности погоды. При расчете учитывается влияние влажности воздуха и скорости ветра на теплоощущения человека.
Tes - Эффективная температура на солнце - температура, которую ощущает человек, с поправкой на солнечный нагрев. Характеристика знойности погоды. Зависит от высоты солнца над горизонтом, облачности и скорости ветра. Ночью, в пасмурную погоду, а также при ветре 12 м/с и более поправка равна нулю.
P - Атмосферное давление - приведенное к уровню моря атмосферное давление.
Po - Атмосферное давление - измеренное на уровне метеостанции атмосферное давление.
Tmin - Минимальная температура - минимум температуры воздуха на высоте 2 м над землей.
Tmax - Максимальная температура - максимум температуры воздуха на высоте 2 м над землей.
R - Количество осадков - Количество выпавших осадков за период времени, мм. При наведении курсора мыши на число - период времени, за который выпало указанное количество осадков.
R24 - Количество осадков - Количество выпавших осадков за 24 часа, мм.
S - Снежный покров - Высота снежного покрова, см. При наведении курсора мыши на число - состояние снежного покрова и степень покрытия местности в баллах.